Other Surface Observations
Issued by NWS

Home | Current Version | Previous Version | Text Only | Print | Product List | Glossary On
Versions: 1 2 3 4 5 6 7 8 9 10 11 12 13 14 15 16 17 18 19 20 21 22 23 24 25 26 27 28 29 30 31 32 33 34 35 36 37 38 39 40 41 42 43 44 45 46 47 48 49 50
000
SXUS52 KTAE 242118
OSOTAE
OSOTAE
North Florida/South Alabama/Southwest Georgia Weather Roundup
National Weather Service Tallahassee Florida
500 PM EDT FRI OCT 24 2014

Note: "fair" indicates few or no clouds below 12,000 feet with no
significant weather and/or obstructions to visibility.

!FLZ017-115-028-034-025-242200
...North Florida...

CITY           SKY/WX    TMP DP  RH WIND       PRES   REMARKS
TALLAHASSEE    MOSUNNY   79  45  29 NE6       29.96S
APALACHICOLA   SUNNY     74  49  41 S7        29.97S
PERRY          SUNNY     75  41  29 E3        29.96F
CROSS CITY       N/A     78  49  35 VRB5      29.94F
JACKSONVILLE   MOSUNNY   72  51  47 E8        29.96F
$$

!FLZ112-006-005-002-011-242200
...Florida Panhandle...

CITY           SKY/WX    TMP DP  RH WIND       PRES   REMARKS
MARIANNA       SUNNY     75  42  30 VRB3      29.97F
BONIFAY        NOT AVBL
PANAMA CITY NW FAIR      76  46  34 W9        29.97S
TYNDALL AFB    SUNNY     73  51  45 W12       29.98S
TYND DRONE APT NOT AVBL
DE FUNIAK SPR  FAIR      74  43  32 N6        29.99F
EGLIN AFB      MOSUNNY   75  50  40 N9        29.97F
DESTIN         SUNNY     74  49  41 SW7       29.98F
HURLBURT       SUNNY     75  45  33 SW5       29.98R
CRESTVIEW      SUNNY     77  44  30 VRB3      30.01R
PENSACOLA      SUNNY     76  43  30 N7        29.99S
$$

!ALZ063-066-242200
...South Alabama...

CITY           SKY/WX    TMP DP  RH WIND       PRES   REMARKS
DOTHAN         SUNNY     76  42  29 VRB6      30.02S
OZARK CAIRNS   SUNNY     76  42  29 NW10      29.99S
FT RUCKER HELI SUNNY     76  41  28 N6        29.98S
RUCKER HELI 3  FAIR      74  42  31 NW7       30.02R
RUCKER HELI 2  FAIR      77  42  28 NW6       29.99S
FLORALA APT    LGT RAIN  77  43  29 N6        30.01S
ANDALUSIA      SUNNY     81  42  25 N6        30.00S
TROY           SUNNY     76  35  22 N10       30.00F
EUFALA         FAIR      76  46  34 VRB5      29.98S
MOBILE         SUNNY     76  36  23 NE10      30.02F
$$

!GAZ120>161-242200
...Southwest and South Central Georgia...

CITY           SKY/WX    TMP DP  RH WIND       PRES   REMARKS
THOMASVILLE    FAIR      77  45  31 N5        29.97S
BAINBRIDGE     SUNNY     79  48  34 W6        29.98S
MOODY AFB      MOSUNNY   75  42  30 SE2       29.97S
VALDOSTA       SUNNY     75  41  29 CALM      29.96F
MOULTRIE       SUNNY     73  46  38 CALM      29.98S
BLAKELY        SUNNY     77  37  24 NW6         N/A
ALBANY         SUNNY     76  46  34 W5        30.00S
TIFTON         FAIR      74  39  28 CALM      29.97S
FITZGERALD     FAIR      76  36  22 CALM      29.99S
CORDELE        FAIR      76  38  25 CALM      29.99S
AMERICUS       FAIR      73  43  33 NW3       30.00S
HOMERVILLE     FAIR      77  46  33 CALM      29.97F
$$

!GMZ750-755-770-775-242200
...Coastal and Buoy Obs...

STATION/POSITION TIME  TEMP    WIND        PRES    VSBY  WAVE
                       AIR SEA DIR/SP/G                  HT/PER
                 (UTC) (F)     (DEG/KT/KT) (MB)    (MI)  (FT/S)
KEATON BEACH     2100   71     270/  6/  8 1014.7S
CEDAR KEY        2058   72     300/  9/ 11 1014.1F
C TOWER          2100   70      30/  1/  3 1014.9F
APALACHICOLA BUO 2100   71 81   20/ 10/ 14 1014.5F         2/ 6
PANAMA CITY BUOY 2009   72 80   40/  6/  8 1015.1F         2/ 5
MOBILE BUOY      2048   71 79  360/ 10/ 16 1016.7R         2/ 6
ORANGE BCH AL BU 2100   71 78  280/  6/ 10 1015.9R         2/ 7
$$



USA.gov is the U.S. government's official web portal to all federal, state and local government web resources and services.